Mount Pleasant, IA

6:09 AM CDT on August 24, 2016 (GMT -0500)
Mount Pleasant Municipal

Weather History for KMPZ - April, 2014

Change the Weather History Date:

Monday, April 21, 2014

  Actual Average Record
Temperature  
Mean Temperature 62 °F -  
Max Temperature 69 °F 62 °F 86 °F (1980)
Min Temperature 55 °F 43 °F 25 °F (1950)
Degree Days  
Heating Degree Days 2    
Growing Degree Days 12 (Base 50)    
Moisture  
Dew Point 53 °F    
Average Humidity 67    
Maximum Humidity 93    
Minimum Humidity 56    
Precipitation  
Precipitation 0.00 in - - ()
Sea Level Pressure  
Sea Level Pressure 29.94 in    
Wind  
Wind Speed 7 mph (WSW)    
Max Wind Speed 15 mph    
Max Gust Speed 21 mph    
Visibility 10 miles    
Events Rain    
Averages and records for this station are not official NWS values.
T = Trace of Precipitation, MM = Missing Value Source: NWS Daily Summary

Daily Weather History Graph

Daily Weather History Graph

Search for Another Location

Airport or City:

Trip Planner

Search our weather history database for the weather conditions in past years. The results will help you decide how hot, cold, wet, or windy it might be!

Date:

Astronomy

Apr. 21, 2014 Rise Set
Actual Time 6:17 AM CDT 7:52 PM CDT
Civil Twilight 5:49 AM CDT 8:21 PM CDT
Nautical Twilight 5:14 AM CDT 8:56 PM CDT
Astronomical Twilight 4:37 AM CDT 9:33 PM CDT
Moon 1:23 AM CDT (4/21) 11:44 AM CDT (4/21)
Length of Visible Light 14h 32m
Length of Day
13h 34m
Waning Gibbous, 57% of the Moon is Illuminated
Apr 21
Waning Gibbous
Apr 22
Last Quarter
Apr 29
New
May 6
First Quarter
May 14
Full

Hourly Weather History & Observations

Time (CDT) Temp. Dew Point Humidity Pressure Visibility Wind Dir Wind Speed Gust Speed Precip Events Conditions
12:15 AM 63.7 °F 48.6 °F 58% 30.00 in 10.0 mi SSW 5.8 mph - N/A   Scattered Clouds
12:35 AM 62.8 °F 48.4 °F 59% 30.00 in 10.0 mi SSW 4.6 mph - N/A   Clear
12:55 AM 64.0 °F 48.2 °F 56% 30.00 in 10.0 mi SSW 5.8 mph - N/A   Clear
1:15 AM 63.1 °F 48.4 °F 59% 29.99 in 10.0 mi SSW 3.5 mph - N/A   Clear
1:35 AM 63.7 °F 48.0 °F 57% 29.99 in 10.0 mi SSW 4.6 mph - N/A   Clear
1:55 AM 62.4 °F 48.6 °F 60% 29.98 in 10.0 mi SSW 4.6 mph - N/A   Clear
2:15 AM 63.1 °F 48.6 °F 59% 29.98 in 10.0 mi SW 5.8 mph - N/A   Clear
2:35 AM 62.6 °F 48.7 °F 60% 29.97 in 10.0 mi SW 6.9 mph - N/A   Clear
2:55 AM 62.6 °F 49.1 °F 61% 29.97 in 10.0 mi SW 6.9 mph - N/A   Clear
3:15 AM 62.1 °F 49.5 °F 63% 29.96 in 10.0 mi SW 5.8 mph - N/A   Clear
3:35 AM 62.1 °F 49.5 °F 63% 29.96 in 10.0 mi SSW 6.9 mph - N/A   Clear
3:55 AM 61.3 °F 50.0 °F 66% 29.96 in 10.0 mi South 6.9 mph - N/A   Clear
4:15 AM 60.4 °F 49.8 °F 68% 29.95 in 10.0 mi South 6.9 mph - N/A   Clear
4:35 AM 60.8 °F 50.2 °F 68% 29.96 in 10.0 mi SSW 8.1 mph - N/A   Clear
4:55 AM 60.4 °F 50.0 °F 68% 29.95 in 10.0 mi SSW 6.9 mph - N/A   Clear
5:15 AM 59.9 °F 50.4 °F 71% 29.95 in 10.0 mi SSW 9.2 mph - N/A   Clear
5:35 AM 61.0 °F 50.7 °F 69% 29.95 in 10.0 mi WSW 6.9 mph - N/A   Scattered Clouds
5:55 AM 61.7 °F 50.9 °F 68% 29.95 in 10.0 mi WSW 8.1 mph - N/A   Scattered Clouds
6:15 AM 62.8 °F 51.4 °F 66% 29.96 in 10.0 mi WSW 8.1 mph - N/A   Mostly Cloudy
6:35 AM 64.6 °F 52.0 °F 64% 29.96 in 10.0 mi West 8.1 mph - N/A   Overcast
6:55 AM 64.8 °F 52.5 °F 64% 29.96 in 10.0 mi WSW 6.9 mph - N/A   Overcast
7:15 AM 64.6 °F 53.1 °F 66% 29.96 in 10.0 mi WSW 4.6 mph - N/A   Mostly Cloudy
7:35 AM 63.0 °F 53.2 °F 71% 29.97 in 10.0 mi SSW 5.8 mph - N/A   Clear
7:55 AM 63.0 °F 53.1 °F 70% 29.96 in 10.0 mi SW 3.5 mph - N/A   Clear
8:15 AM 64.4 °F 53.1 °F 67% 29.97 in 10.0 mi SW 4.6 mph - N/A   Scattered Clouds
8:35 AM 65.3 °F 53.6 °F 66% 29.96 in 10.0 mi WSW 6.9 mph - N/A   Clear
8:55 AM 66.2 °F 54.3 °F 65% 29.97 in 10.0 mi WSW 8.1 mph - N/A   Scattered Clouds
9:15 AM 66.7 °F 54.5 °F 65% 29.97 in 10.0 mi SW 6.9 mph - N/A   Overcast
9:35 AM 68.0 °F 54.7 °F 62% 29.96 in 10.0 mi WSW 8.1 mph - N/A   Scattered Clouds
9:55 AM 68.9 °F 54.9 °F 61% 29.96 in 10.0 mi SW 10.4 mph - N/A   Mostly Cloudy
10:15 AM 68.0 °F 54.7 °F 62% 29.95 in 10.0 mi SW 6.9 mph - N/A   Mostly Cloudy
10:35 AM 67.5 °F 54.9 °F 64% 29.95 in 10.0 mi SSW 6.9 mph - N/A   Mostly Cloudy
10:55 AM 68.4 °F 55.4 °F 63% 29.96 in 10.0 mi SW 6.9 mph - N/A   Overcast
11:15 AM 68.9 °F 55.2 °F 62% 29.96 in 10.0 mi SSW 8.1 mph - N/A   Overcast
11:35 AM 68.9 °F 54.9 °F 61% 29.96 in 10.0 mi SW 10.4 mph - N/A   Overcast
11:55 AM 68.4 °F 55.0 °F 62% 29.96 in 10.0 mi WSW 11.5 mph - N/A   Overcast
12:15 PM 67.5 °F 54.9 °F 64% 29.95 in 10.0 mi WSW 12.7 mph 17.3 mph N/A   Overcast
12:35 PM 65.1 °F 57.7 °F 77% 29.95 in 5.0 mi WSW 9.2 mph - N/A Rain Light Rain
12:55 PM 64.4 °F 58.6 °F 82% 29.94 in 5.0 mi SW 9.2 mph - N/A Rain Light Rain
1:15 PM 63.9 °F 60.6 °F 89% 29.93 in 5.0 mi SSW 9.2 mph - N/A Rain Rain
1:35 PM 63.9 °F 61.0 °F 90% 29.93 in 7.0 mi SSW 10.4 mph - N/A Rain Rain
1:55 PM 63.9 °F 61.7 °F 93% 29.94 in 7.0 mi WSW 12.7 mph - N/A Rain Light Rain
2:15 PM 63.5 °F 61.3 °F 93% 29.94 in 7.0 mi WSW 10.4 mph - N/A Rain Light Rain
2:35 PM 65.1 °F 62.1 °F 90% 29.93 in 10.0 mi WSW 6.9 mph - N/A   Overcast
2:55 PM 67.1 °F 61.7 °F 83% 29.92 in 10.0 mi WSW 9.2 mph - N/A   Overcast
3:15 PM 67.1 °F 60.3 °F 79% 29.92 in 10.0 mi West 10.4 mph - N/A   Overcast
3:35 PM 67.6 °F 59.4 °F 75% 29.91 in 10.0 mi WSW 11.5 mph - N/A   Overcast
3:55 PM 67.5 °F 58.6 °F 73% 29.90 in 10.0 mi WSW 10.4 mph - N/A   Overcast
4:15 PM 69.4 °F 58.3 °F 68% 29.90 in 10.0 mi West 12.7 mph - N/A   Overcast
4:35 PM 68.4 °F 57.0 °F 67% 29.90 in 10.0 mi West 10.4 mph - N/A   Overcast
4:55 PM 68.0 °F 56.8 °F 67% 29.89 in 10.0 mi West 6.9 mph - N/A   Overcast
5:15 PM 69.1 °F 57.0 °F 65% 29.89 in 10.0 mi West 8.1 mph - N/A   Mostly Cloudy
5:35 PM 68.0 °F 57.6 °F 69% 29.89 in 10.0 mi West 9.2 mph - N/A Rain Light Rain
5:55 PM 66.6 °F 58.6 °F 76% 29.89 in 10.0 mi West 9.2 mph - N/A Rain Light Rain
6:15 PM 66.2 °F 59.2 °F 78% 29.89 in 10.0 mi NW 5.8 mph - N/A   Mostly Cloudy
6:35 PM 66.2 °F 58.1 °F 75% 29.89 in 10.0 mi WNW 11.5 mph - N/A   Scattered Clouds
6:55 PM 66.6 °F 58.1 °F 74% 29.89 in 10.0 mi NW 11.5 mph - N/A   Clear
7:15 PM 66.4 °F 58.1 °F 75% 29.90 in 10.0 mi NW 11.5 mph - N/A   Clear
7:35 PM 66.2 °F 57.7 °F 74% 29.90 in 10.0 mi NW 15.0 mph 19.6 mph N/A   Mostly Cloudy
7:55 PM 64.9 °F 51.8 °F 62% 29.90 in 10.0 mi NW 10.4 mph 20.7 mph N/A   Mostly Cloudy
8:15 PM 63.3 °F 50.2 °F 62% 29.91 in 10.0 mi NW 8.1 mph - N/A   Scattered Clouds
8:35 PM 62.6 °F 47.5 °F 58% 29.92 in 10.0 mi NW 9.2 mph - N/A   Clear
8:55 PM 61.5 °F 46.8 °F 58% 29.92 in 10.0 mi NW 5.8 mph - N/A   Clear
9:15 PM 60.8 °F 46.6 °F 59% 29.93 in 10.0 mi NW 6.9 mph - N/A   Clear
9:35 PM 60.8 °F 45.7 °F 57% 29.94 in 10.0 mi NW 9.2 mph - N/A   Clear
9:55 PM 59.9 °F 44.6 °F 57% 29.95 in 10.0 mi NW 10.4 mph 16.1 mph N/A   Clear
10:15 PM 59.2 °F 43.7 °F 57% 29.95 in 10.0 mi NW 11.5 mph 17.3 mph N/A   Clear
10:35 PM 58.5 °F 42.8 °F 56% 29.95 in 10.0 mi NW 12.7 mph 18.4 mph N/A   Clear
10:55 PM 57.6 °F 42.4 °F 57% 29.96 in 10.0 mi NW 8.1 mph 17.3 mph N/A   Clear
11:15 PM 56.8 °F 41.9 °F 57% 29.96 in 10.0 mi NW 13.8 mph 17.3 mph N/A   Clear
11:55 PM 55.8 °F 41.0 °F 58% 29.97 in 10.0 mi NW 10.4 mph 18.4 mph N/A   Clear